Regional Weather Roundup
Issued by NWS Sterling, VA

Home | Current Version | Previous Version | Text Only | Print | Product List | Glossary On
Versions: 1 2 3 4 5 6 7 8 9 10 11 12 13 14 15 16 17 18 19 20 21 22 23 24 25 26 27 28 29 30 31 32 33 34 35 36 37 38 39 40 41 42 43 44 45 46 47 48 49 50
736
ASUS41 KLWX 151911
RWRLWX

REGIONAL WEATHER ROUNDUP
NATIONAL WEATHER SERVICE BALTIMORE MD/WASHINGTON DC
200 PM EST FRI NOV 15 2019

Note: "FAIR" indicates few or no clouds below 12,000 feet
with no significant weather and/or obstructions to visibility.
 TC=TEMPERATURE CELSIUS

 * =Non NWS site. Station does not report precipitation (e.g. rain,
    snow, etc.), thunder, or fog.

DCZ001-MDZ009-015-VAZ040>042-051-053>054-152000-
WASHINGTON METRO

CITY           SKY/WX    TMP DP  RH WIND       PRES   REMARKS
WASHINGTON NAT CLOUDY    54  25  32 NW6       30.21F
DULLES         PTSUNNY   53  25  33 CALM      30.20F
ANDREWS AFB    FAIR      52  25  34 NW3       30.18F
FT BELVOIR     FAIR      54  24  30 W5        30.19F
QUANTICO       FAIR      52  26  36 CALM      30.20F
COLLEGE PARK*  FAIR      52  19  27 CALM      30.19F
LEESBURG*      FAIR      52  30  43 NW5       30.21F
MANASSAS*      FAIR      54  26  34 NW5       30.19F
GAITHERSBURG*  FAIR      52  25  35 N5        30.20F

$$

MDZ006>007-011-014-152000-
BALTIMORE METRO

CITY           SKY/WX    TMP DP  RH WIND       PRES   REMARKS
BWI AIRPORT    PTSUNNY   54  25  32 VRB5      30.18F
MD SCIENCE CTR   N/A     53  24  32 MISG      30.19F
MARTIN STATE   PTSUNNY   50  34  53 NW6       30.20F
ANNAPOLIS      FAIR      50  33  52 SE8       30.19F
ABERDEEN*      PTSUNNY   52  27  37 S6        30.18F
FORT MEADE*    FAIR      52  27  37 W6        30.21F

$$

MDZ012-015-019>023-152000-
MARYLAND EASTERN SHORE

CITY           SKY/WX    TMP DP  RH WIND       PRES   REMARKS
OCEAN CITY     FAIR      50  34  54 NE8       30.19F
SALISBURY      FAIR      52  30  43 N5        30.18F
BAY BRIDGE AP* FAIR      52  25  35 S3        30.20F
CAMBRIDGE*     SUNNY     50  32  50 NW3       30.19F
EASTON*        SUNNY     52  28  40 NW6       30.22

$$

MDZ017>025-152000-
SOUTHERN MARYLAND

CITY           SKY/WX    TMP DP  RH WIND       PRES   REMARKS
PATUXENT RIVER PTSUNNY   50  31  48 NE9       30.20F
ST INIGOES     FAIR      53  31  42 NE7       30.19F
LEONARDTOWN*   FAIR      48  30  49 CALM      30.21F

$$

MDZ003>005-152000-
NORTH CENTRAL MARYLAND

CITY           SKY/WX    TMP DP  RH WIND       PRES   REMARKS
FREDERICK*     MOSUNNY   54  27  35 NW7       30.19F
HAGERSTOWN APT FAIR      50  24  36 CALM      30.18F

$$

MDZ501>502-152000-
WESTERN MARYLAND

CITY           SKY/WX    TMP DP  RH WIND       PRES   REMARKS
OAKLAND*       FAIR      41  25  52 W6        30.16F
CUMBERLAND*    FAIR      54  26  33 SE6       30.23R

$$

VAZ025>031-152000-
SHENANDOAH VALLEY

CITY           SKY/WX    TMP DP  RH WIND       PRES   REMARKS
WINCHESTER*    FAIR      52  27  37 SW3       30.16F
FRONT ROYAL*   FAIR      52  23  32 CALM      30.18F
LURAY*         FAIR      54  21  28 CALM      30.17F
NEW MARKET*    FAIR      53  21  28 E3        30.17F
STAUNTON*      FAIR      51  20  29 CALM      30.20F
WAYNESBORO*    FAIR      50  20  30 CALM      30.18F

$$

WVZ021-048>050-054>055-152000-
EASTERN WEST VIRGINIA PANHANDLE

CITY           SKY/WX    TMP DP  RH WIND       PRES   REMARKS
MARTINSBURG    FAIR      54  22  28 W8        30.18F
PETERSBURG*    FAIR      54  26  34 CALM      30.18F

$$

VAZ036>039-050-152000-
CENTRAL FOOTHILLS

CITY           SKY/WX    TMP DP  RH WIND       PRES   REMARKS
CHARLOTTESVILL FAIR      53  22  29 CALM      30.19F
CULPEPER*      FAIR      55  22  28 CALM      30.20F
ORANGE*        FAIR      52  25  35 CALM      30.19F
GORDONSVILLE*  FAIR      52  21  29 CALM      30.19F
WARRENTON*     FAIR      55  20  25 CALM      30.19F

$$

VAZ055>057-152000-
NORTH AND CENTRAL PIEDMONT

CITY           SKY/WX    TMP DP  RH WIND       PRES   REMARKS
FREDERICKSBRG* FAIR      53  29  39 CALM      30.19F
STAFFORD*      FAIR      53  26  34 NW6       30.23F

$$

NCZ024-NYZ072-PAZ021-071-VAZ022-071-152000-
OTHER REGIONAL OBSERVATIONS

CITY           SKY/WX    TMP DP  RH WIND       PRES   REMARKS
NEW YORK CITY  FAIR      50  22  33 VRB3      30.15F
PHILADELPHIA   PTSUNNY   52  22  30 W7        30.17F
PITTSBURGH     FAIR      41  25  53 VRB6      30.23F
ROANOKE        CLOUDY    51  23  33 CALM      30.20F
RICHMOND       CLOUDY    49  35  58 NE8       30.20F
RALEIGH        LGT RAIN  45  43  93 N6        30.15F

$$

ANZ530>537-152000-
MARINE OBSERVATIONS

STATION/POSITION TIME  TEMP    WIND        PRES
                       AIR SEA DIR/SP/G
                 (UTC) (F)     (DEG/KT/KT) (MB)
THOMAS PT LIGHT  1900   49 52   50/  6/  6 1023.0F
BALT KEY BRIDGE  1824   51     350/  2/  2 1022.2
LEWISETTA        1824   49 48   60/  7/ 10 1022.8
SOLOMONS ISLAND  1824   49 54   30/  7/ 11 1022.3
PINEY POINT      1824           40/  5/  6   N/A

$$





USA.gov is the U.S. government's official web portal to all federal, state and local government web resources and services.